SCP
0 0 0 0 0 0 0 0 0 0 0 0 0 0 1 1 1 1 1 2 4 5 5 4 3 2 2 1 1 1 1 0 0 1 1 1 1 1 1 1 1 0 0 0 0 0 0 0 0
0 0 0 0 0 0 0 0 0 0 0 0 0 0 1 1 1 1 2 3 5 6 4 4 3 2 2 1 1 1 1 1 1 1 1 1 1 1 1 1 1 0 0 0 0 0 0 0 0
0 0 0 0 0 0 0 0 0 0 0 0 0 0 1 1 1 1 2 4 5 5 4 3 3 3 2 1 1 1 1 1 1 1 1 1 1 1 1 1 0 0 0 0 0 0 0 0 0
0 0 0 0 0 0 0 0 0 0 0 0 0 1 1 1 1 2 3 4 4 4 3 3 3 2 2 1 1 1 1 1 1 1 1 1 1 1 1 1 0 0 0 0 0 0 0 0 0
0 0 0 0 0 0 0 0 0 0 0 0 1 1 2 1 2 2 2 3 3 3 3 2 2 2 2 2 1 1 1 1 1 1 1 1 1 1 1 1 0 0 0 0 0 0 0 0 0
0 0 0 0 0 0 0 0 0 0 0 0 1 2 2 2 2 1 2 2 3 3 2 2 2 2 2 1 1 1 1 1 1 1 1 1 1 1 1 1 0 0 0 0 0 0 0 0 0
0 0 0 0 0 0 0 0 0 0 0 0 1 2 4 4 2 1 1 2 2 2 2 2 2 2 2 1 1 1 1 1 1 1 1 1 1 1 1 1 0 0 0 0 0 0 0 0 0
0 0 0 0 0 0 0 0 0 0 0 0 1 3 5 4 2 1 1 2 2 2 2 1 1 1 1 1 1 1 1 1 1 1 1 1 1 1 1 1 0 0 0 0 0 0 0 0 0
0 0 0 0 0 0 0 0 0 0 0 0 1 2 3 3 2 1 1 2 2 2 2 1 1 1 1 1 1 1 1 1 1 1 1 1 0 0 0 1 1 0 0 0 0 0 0 0 0
0 0 0 0 0 0 0 1 0 0 0 0 1 2 3 2 1 1 1 2 2 2 2 1 1 1 1 1 1 1 1 1 1 1 0 0 0 0 1 1 1 1 0 0 0 0 0 0 0
0 0 0 0 0 0 0 0 0 0 0 1 2 3 3 2 1 1 2 2 2 2 2 1 1 1 1 1 1 1 1 1 1 1 0 0 0 0 1 1 1 1 0 0 1 0 0 0 0
0 0 0 0 0 0 0 0 0 0 0 1 2 3 3 2 2 2 2 2 2 2 2 1 1 1 2 2 1 1 1 1 1 1 1 0 0 0 1 1 1 1 1 1 1 1 1 1 1
0 0 0 0 0 0 0 0 0 0 0 0 2 3 3 2 2 2 3 3 3 2 2 2 2 2 3 3 2 2 1 1 1 1 1 1 0 1 1 1 1 1 1 1 1 1 1 1 1
0 0 0 0 0 0 0 0 0 0 0 0 1 2 2 2 2 3 4 4 4 3 2 2 3 3 4 3 3 2 1 1 1 1 1 1 1 1 1 1 1 1 1 2 2 2 2 2 2
0 0 0 0 0 0 0 0 0 0 0 0 1 1 2 2 2 3 5 6 5 4 3 3 3 4 4 4 3 2 2 1 2 2 2 2 1 1 2 2 2 2 2 2 2 2 3 3 3
0 0 0 0 0 0 0 0 0 0 0 1 2 2 2 2 2 4 6 7 6 5 5 4 3 4 4 4 3 2 2 2 2 3 3 2 2 2 2 2 2 2 3 3 2 3 3 3 4
0 0 0 0 0 0 0 0 0 1 2 4 4 3 3 3 4 5 7 7 7 8 7 6 5 4 4 4 3 3 3 3 3 4 4 4 3 3 3 3 3 3 4 3 3 3 4 4 4
0 0 0 0 0 0 1 1 2 3 5 6 6 6 6 7 8 9 9 9 9 10 9 8 6 6 5 4 4 3 4 4 4 4 5 5 4 4 4 4 4 4 5 4 4 4 4 4 4
0 0 0 0 0 1 2 3 3 4 6 7 7 9 10 11 12 13 13 12 11 11 10 8 7 6 5 4 4 4 4 4 4 5 6 6 6 6 6 5 5 6 6 5 5 5 5 4 4
0 0 0 0 1 1 2 3 3 4 5 6 8 11 13 13 13 14 15 15 14 12 9 8 7 6 5 5 5 6 6 6 6 6 7 8 8 8 7 6 6 6 6 5 5 5 5 5 5
0 0 0 0 1 1 1 2 3 4 4 5 7 9 11 11 11 12 15 16 15 13 10 8 7 6 6 6 7 7 7 7 7 7 8 9 9 8 7 7 6 6 5 5 5 5 5 5 5
0 0 0 0 0 0 1 1 2 3 4 4 5 6 7 8 9 10 11 12 12 11 9 8 8 7 6 6 7 7 7 7 7 8 9 10 8 7 7 7 7 7 7 6 5 4 4 5 5
0 0 0 0 0 0 0 1 2 4 4 4 5 6 7 8 10 11 10 9 9 9 9 9 8 8 7 7 7 8 7 7 8 9 10 9 8 7 6 7 8 9 9 7 6 4 4 5 5
0 0 0 0 0 0 0 1 3 4 5 5 6 8 11 11 12 11 11 10 10 10 10 9 9 8 8 8 9 9 8 8 9 9 9 7 6 6 6 7 9 10 10 8 6 5 4 4 4
0 0 0 0 0 0 1 1 3 5 6 7 8 10 11 11 10 8 8 9 11 11 11 10 10 9 9 9 10 10 10 9 9 8 7 6 5 5 5 7 8 9 8 7 6 4 3 2 2
0 0 0 0 0 0 1 2 3 5 7 7 8 8 7 6 6 5 5 7 9 10 10 9 9 10 9 9 9 9 9 8 6 5 4 4 4 3 4 5 6 6 5 4 3 2 1 1 1
0 0 0 0 0 0 1 2 3 4 5 5 5 4 4 4 4 4 5 5 6 7 7 6 6 6 6 5 5 4 4 4 3 2 2 1 1 1 1 2 2 2 2 1 1 1 0 0 0
0 0 0 0 0 0 1 2 2 3 3 3 3 3 3 3 3 3 3 3 3 3 3 2 2 2 2 1 1 1 1 1 0 0 0 0 0 0 0 0 0 0 0 0 0 0 0 0 0
0 0 0 0 0 0 0 1 2 2 2 3 3 2 2 1 1 1 1 1 1 1 0 0 0 0 0 0 0 0 0 0 0 0 0 0 0 0 0 0 0 0 0 0 0 0 0 0 0
0 0 0 0 0 0 0 1 1 2 2 2 2 2 1 1 0 0 0 0 0 0 0 0 0 0 0 0 0 0 0 0 0 0 0 0 0 0 0 0 0 0 0 0 0 0 0 0 0
Wind_Speed
14 16 13 10 10 12 17 10 3 5 3 1 3 6 8 12 9 6 4 11 22 22 19 19 19 19 19 18 17 16 15 14 12 11 11 11 11 11 12 12 11 11 11 11 11 10 10 10 10
12 16 12 9 11 14 12 3 2 5 1 3 5 5 10 14 10 9 9 16 23 21 18 17 19 19 19 18 17 16 15 15 13 12 11 11 11 11 11 11 11 10 10 10 10 10 9 9 8
14 16 10 10 16 18 10 4 8 8 3 2 4 4 8 11 9 9 13 18 21 19 17 18 19 19 18 18 18 17 16 15 13 12 12 11 11 11 11 11 10 10 9 9 9 9 8 8 7
11 11 10 12 20 21 12 6 7 15 6 2 3 7 11 9 8 13 16 19 20 19 18 17 18 19 18 18 18 17 16 15 14 13 12 11 11 11 11 10 10 9 9 8 8 8 7 6 5
11 10 14 18 22 21 9 9 6 14 9 1 2 8 10 8 13 17 16 18 20 19 18 17 17 18 18 18 17 17 16 15 14 13 12 11 11 10 10 10 10 9 9 8 7 7 6 5 4
11 12 16 18 21 21 13 9 11 15 12 5 4 10 9 8 13 15 16 17 19 20 19 16 17 18 18 17 17 16 15 15 14 13 12 11 11 10 10 10 9 9 8 7 7 6 5 4 3
13 15 19 22 21 20 14 12 15 13 10 3 1 7 10 8 12 15 16 16 19 21 19 16 15 16 17 17 16 16 15 14 13 13 12 12 11 11 10 10 9 9 8 7 7 6 5 4 3
14 15 22 22 23 21 13 8 9 10 10 2 1 6 10 9 12 14 15 16 17 19 18 16 15 15 14 14 16 16 15 14 14 13 13 12 11 11 11 10 9 9 8 7 6 6 5 5 4
18 18 20 21 21 19 13 7 7 11 11 7 5 12 15 13 14 15 15 15 15 17 17 16 16 15 14 14 14 14 14 13 13 12 12 11 9 9 9 10 11 9 8 7 7 6 6 6 7
17 17 23 21 21 18 13 7 9 12 12 10 6 15 18 17 17 16 16 17 17 17 17 16 16 16 15 13 12 9 10 10 9 9 10 7 6 6 8 13 13 11 9 8 8 8 8 7 6
20 22 20 21 22 20 15 10 9 11 11 13 9 15 17 18 17 16 17 16 17 18 16 16 15 14 13 11 11 8 7 8 8 9 9 6 5 4 7 7 7 7 9 7 7 8 7 7 5
21 20 19 20 21 18 16 12 12 11 12 12 7 9 13 15 16 16 16 17 17 18 17 15 16 12 11 12 10 8 7 7 7 7 8 6 3 3 5 5 7 7 6 6 6 6 7 6 3
19 18 18 18 17 17 15 14 14 14 12 10 8 7 13 14 15 15 14 16 18 17 15 15 14 11 7 8 8 8 6 8 7 6 7 6 4 4 3 3 3 4 4 5 5 5 4 3 2
15 15 15 16 17 16 15 16 17 17 15 13 12 11 11 13 15 15 14 14 16 15 13 12 13 12 8 7 5 5 6 6 7 7 8 7 5 4 2 2 2 2 1 1 2 2 1 1 2
14 15 16 16 16 16 16 19 20 18 17 17 15 14 13 13 14 15 15 14 15 14 12 10 11 12 10 9 7 5 4 6 5 6 8 7 5 3 3 2 2 2 2 1 1 2 1 2 3
13 15 18 19 19 18 18 19 17 19 21 19 17 15 15 13 12 14 16 13 14 14 12 11 12 13 10 7 7 5 5 5 5 5 5 7 6 4 3 2 2 2 1 1 1 2 2 2 2
16 17 20 21 21 18 18 17 16 15 19 18 16 16 15 13 11 10 15 14 13 13 12 10 9 12 11 9 6 5 4 3 3 4 4 5 5 4 4 2 2 2 2 1 3 2 2 2 1
13 15 18 17 13 15 15 13 11 8 11 14 13 13 12 10 8 9 11 14 12 12 11 9 8 9 10 8 5 4 4 3 3 3 3 5 4 5 4 3 3 3 2 2 2 2 1 1 1
16 14 13 9 10 12 12 10 5 2 2 4 6 6 6 5 7 10 10 11 12 11 10 8 8 8 7 6 6 5 4 3 3 3 4 5 4 4 4 3 3 3 3 3 3 2 3 2 1
13 13 10 4 6 7 8 8 4 2 7 9 8 7 7 5 8 9 10 9 9 9 8 8 6 7 7 5 4 4 4 4 3 3 3 4 4 4 4 3 2 2 2 3 4 3 2 2 2
12 12 11 8 6 8 7 7 6 6 9 9 10 11 14 12 10 10 10 9 8 6 5 5 5 5 6 6 4 4 3 3 3 3 3 3 3 3 2 2 2 2 2 3 4 4 5 3 3
12 12 11 10 8 8 11 7 8 8 7 9 11 13 14 13 14 12 11 11 9 6 5 5 4 3 3 3 4 5 5 4 4 3 3 3 3 3 2 1 1 0 0 1 3 2 2 3 3
12 10 10 11 11 10 10 8 7 9 9 9 10 12 12 12 13 13 12 12 11 9 7 6 6 5 3 2 2 2 2 1 2 3 4 4 5 5 5 5 4 3 3 3 3 3 2 0 1
10 10 9 11 11 14 14 10 6 5 9 11 11 13 13 13 13 14 14 14 14 13 11 9 9 8 7 5 4 3 3 2 3 3 5 5 5 5 7 7 6 6 5 6 6 5 6 5 4
10 9 8 10 11 13 13 8 7 9 10 14 14 13 13 13 13 14 15 15 15 15 13 11 11 11 11 10 9 8 7 7 6 6 6 7 6 6 8 8 9 8 8 8 8 8 8 8 8
11 14 11 6 6 8 11 7 10 14 15 15 15 14 14 13 13 14 14 13 14 15 15 14 14 13 13 13 13 12 11 9 9 11 10 9 8 8 9 10 11 11 10 10 9 9 9 9 9
12 13 12 10 10 9 1 9 10 14 15 16 15 14 14 13 13 13 13 13 14 14 14 15 15 16 16 15 15 15 15 14 14 13 13 11 10 10 13 13 13 12 12 12 10 9 10 9 9
12 10 8 9 6 5 4 7 9 16 16 16 15 14 14 13 13 13 13 13 13 13 14 15 16 16 15 15 14 14 15 15 14 14 15 14 13 12 13 13 13 13 12 12 11 9 9 10 9
9 10 9 8 5 4 4 2 3 14 15 16 15 14 13 13 12 12 12 13 13 13 14 15 15 15 15 15 15 16 15 15 15 15 14 13 12 12 13 12 12 12 11 10 9 8 8 8 7
8 8 7 7 6 5 2 4 8 12 15 16 16 14 13 13 12 12 13 13 13 13 14 14 14 15 15 14 15 15 15 15 15 15 13 12 12 11 11 11 11 10 9 8 8 8 7 6 6
Wind_Direction
295 281 270 270 259 248 254 262 194 223 197 162 89 83 84 77 78 110 175 136 119 125 131 134 137 141 142 142 141 140 139 138 136 131 125 119 113 109 106 105 104 103 102 102 100 98 95 91 88
293 288 279 259 258 256 257 319 315 273 151 167 132 118 98 89 98 128 146 126 123 129 137 135 138 142 144 144 143 142 143 143 139 134 129 123 118 114 111 109 107 106 105 105 104 102 98 95 92
276 271 271 258 250 257 264 323 307 288 242 196 115 102 83 95 105 125 127 131 127 134 132 130 139 141 144 144 145 145 146 145 142 138 134 128 123 119 116 114 111 110 109 109 107 105 103 99 97
267 253 244 252 254 256 254 171 289 294 279 175 110 93 82 87 115 123 134 137 132 134 127 133 137 140 143 144 147 148 148 147 145 142 138 131 126 123 121 120 119 118 116 115 113 110 108 106 104
245 253 249 248 254 259 246 154 179 277 287 254 115 97 93 92 110 122 142 139 135 131 128 133 135 138 142 144 147 149 149 148 146 143 139 134 130 127 126 127 127 126 124 123 121 119 116 115 117
245 237 246 249 252 252 237 176 197 232 245 222 166 117 111 117 120 135 142 139 135 129 129 131 134 137 141 145 147 148 148 148 146 143 140 136 133 132 133 134 134 133 132 131 130 129 128 128 135
243 243 244 250 256 256 246 198 215 239 252 228 118 114 107 123 130 141 140 139 132 130 132 140 140 140 141 143 145 147 147 147 146 144 142 140 139 140 141 141 141 140 141 142 142 145 147 153 169
241 250 253 252 256 259 256 228 238 259 269 244 144 100 114 129 142 143 144 139 136 134 138 146 148 145 146 145 147 149 149 149 148 148 148 147 147 150 152 153 149 150 153 155 158 163 171 183 199
243 244 249 251 256 261 256 233 248 270 269 256 144 113 132 153 158 153 151 144 142 139 143 154 154 153 155 152 150 152 153 151 151 155 156 158 170 170 172 165 153 162 167 172 178 187 196 203 213
236 240 247 255 264 270 267 244 210 243 259 258 170 132 144 161 164 166 161 156 150 147 153 161 159 160 163 155 149 160 166 161 175 170 170 190 200 186 174 149 161 171 179 188 199 207 215 223 215
235 241 253 260 264 271 272 258 233 220 233 248 220 152 154 162 169 175 168 164 157 155 163 164 161 165 164 149 157 168 174 165 194 177 178 205 211 179 143 156 164 179 190 201 200 211 224 223 218
240 244 252 260 269 273 273 264 256 240 234 235 225 150 159 170 176 182 174 168 161 162 169 164 161 166 166 153 162 167 174 166 187 173 182 200 214 207 170 177 175 185 197 204 190 216 219 231 232
246 245 251 260 268 275 280 271 266 266 260 258 252 202 177 185 185 185 178 169 164 166 171 163 163 160 157 145 162 171 175 171 181 171 187 201 196 216 204 190 181 202 194 181 202 228 219 210 230
265 261 254 255 256 258 262 265 265 262 263 258 245 228 213 198 194 183 174 175 167 164 168 160 158 153 150 146 162 162 173 167 175 169 183 199 212 198 196 189 183 250 279 178 208 237 216 212 247
271 274 269 258 249 245 246 248 246 249 252 249 243 233 224 219 203 182 172 175 165 159 159 152 154 153 155 160 176 170 177 171 175 174 179 185 212 196 179 213 184 219 249 228 279 297 285 245 235
260 255 255 249 237 233 234 245 243 227 228 234 234 228 219 218 210 181 170 166 160 157 153 157 167 158 158 166 178 183 191 180 175 171 171 179 202 187 176 206 213 204 230 221 232 264 269 270 277
245 242 245 244 223 215 218 239 248 235 212 217 223 224 214 204 200 177 165 156 151 148 149 158 166 159 166 173 178 200 192 183 170 164 163 173 192 194 180 205 214 196 200 220 245 222 229 257 269
249 244 240 242 202 202 211 227 245 247 206 203 211 220 204 191 174 149 153 148 142 140 145 156 165 158 163 171 177 202 205 182 176 167 161 166 180 195 190 202 209 203 203 207 231 252 233 238 242
279 288 281 241 166 191 204 217 225 212 166 178 192 197 182 163 133 130 131 133 135 135 144 158 174 162 164 174 183 191 200 192 181 180 168 168 178 189 188 217 204 196 209 214 213 218 221 228 209
272 275 276 263 152 194 199 195 176 111 83 64 64 60 65 74 87 94 105 111 120 133 147 159 172 171 177 178 181 184 190 190 185 180 168 165 170 178 195 206 214 212 219 230 224 214 216 216 192
259 262 265 259 215 202 207 198 171 120 90 76 62 57 56 44 47 68 76 83 101 108 127 158 164 167 180 180 176 184 179 185 192 172 154 145 142 153 181 197 212 240 240 246 239 221 213 210 204
249 248 259 264 243 209 205 200 179 138 106 86 69 59 55 47 38 45 49 54 56 65 82 83 99 118 146 167 188 197 198 199 193 157 139 132 118 112 99 62 28 279 295 304 300 280 245 220 209
252 257 248 251 251 255 224 215 183 158 138 101 80 70 64 60 51 44 40 42 38 40 52 65 71 69 80 109 141 175 199 180 137 119 118 96 72 68 70 62 49 41 47 55 45 25 24 341 201
250 257 250 250 248 243 235 223 165 157 141 119 90 73 65 61 56 49 42 40 35 36 44 49 54 51 49 59 61 71 80 81 98 106 104 85 67 53 55 62 56 48 47 54 57 54 52 51 56
234 240 229 221 224 234 225 216 115 100 105 107 97 83 71 64 58 51 45 41 39 37 39 46 54 52 50 54 55 55 64 70 75 81 82 82 70 58 52 60 60 56 53 53 56 58 55 53 58
220 236 241 254 256 250 212 160 131 123 113 106 102 92 79 69 63 57 52 49 47 44 42 47 53 54 53 56 56 54 57 64 65 65 70 69 69 65 65 65 65 62 59 59 59 61 59 57 57
217 230 245 262 274 280 190 109 127 130 124 118 109 98 86 75 68 63 59 56 55 52 50 53 57 57 56 58 62 60 61 67 72 71 69 69 68 70 67 66 65 61 59 60 61 60 58 58 54
247 238 241 246 259 267 239 183 163 155 140 123 110 101 92 83 74 68 65 64 61 60 60 60 62 64 63 63 65 68 66 69 72 74 75 75 72 72 71 69 66 63 60 57 59 59 55 58 52
231 240 251 264 235 231 219 257 153 148 135 121 109 101 94 88 81 75 71 69 69 67 65 66 67 69 68 69 70 72 71 72 73 73 74 74 73 72 72 71 70 67 64 60 61 61 56 59 55
237 251 250 272 293 278 180 91 96 119 119 113 108 102 95 91 86 80 76 72 70 69 69 69 70 72 73 74 76 77 77 77 77 76 74 74 74 71 72 72 71 69 67 62 61 59 54 53 51